Вернуться в каталог

QIANFAN-141

АктивенСвязьPO
NORAD 69087·PAYLOAD·🇨🇳 China

Запущен May 12, 2026 с Taiyuan Satellite Launch Center

Loading…

Ближайшие Пролёты (ближайшие 24 часа)

TLE

СвежийSource: Space-Track

Эпоха: Sep 14, 2026, 21:11 UTC

1 69087U 26104Q   26257.88296940  .00000024  00000-0  18719-4 0  9997
2 69087  88.9904 332.2882 0002239 113.7073 246.4314 13.51019928 17287

Отслеживайте QIANFAN-141 в реальном времени с AllMySat

Download on the App Store